CZ-4 DEB

基本信息
目录编号:
37615
目录名称:
CZ-4 DEB
国际标识:
1990-081DB
轨道中心:
EARTH
物体状态:
在轨
发射日期:
1990-09-03 UTC
轨道信息
数据来源: 国际轨道数据
星历时间: 2026-07-04T06:53:35+0800
半长轴: 7153.155km
偏心率: 0.0013958
轨道倾角: 98.546°
近地点辐角: 203.166°
升交点赤经: 184.269°
平近点角: 156.890°
近地点: 765.033km
远地点: 785.003km
周期: 100.347分钟
每日圈数: 14.350146
详细信息
发射场:
TSC
轨道高度:
LEO
数据来源:
AOE Integration Group
参考系:
TEME
时间系统:
UTC
历元类型:
SGP4
2D轨道图
3D轨道图
轨道高度分析图
轨道倾角分析图
轨道综合分析图
查看轨道综合分析图